Location: Edinburgh
(55.9500°N, 3.1600°W)
Time: 16:04:32
(UTC+00:00)

ISS - Visible Passes

Search period start: 27 February 2024 00:00
Search period end: 08 March 2024 00:00
Orbit: 414 x 422 km, 51.6° (Epoch: 27 February)

Date Brightness Start Highest point End Pass type
(mag) Time Alt. Az. Time Alt. Az. Time Alt. Az.
27 Feb -3.0 05:07:05 37° SSW 05:07:32 39° S 05:10:44 10° ESE visible
28 Feb -1.9 04:21:04 26° SE 04:21:04 26° SE 04:22:56 10° ESE visible
28 Feb -2.8 05:53:59 17° WSW 05:56:11 35° S 05:59:19 10° ESE visible
29 Feb -0.5 03:35:00 10° ESE 03:35:00 10° ESE 03:35:04 10° E visible
29 Feb -3.0 05:07:55 36° SSW 05:08:23 38° S 05:11:34 10° ESE visible
01 Mar -2.0 04:21:50 27° SE 04:21:50 27° SE 04:23:44 10° ESE visible
01 Mar -2.4 05:54:46 15° WSW 05:56:52 26° SSW 05:59:45 10° SE visible
02 Mar -0.5 03:35:44 11° ESE 03:35:44 11° ESE 03:35:50 10° ESE visible
02 Mar -2.8 05:08:40 30° SSW 05:09:01 31° SSW 05:12:03 10° SE visible
03 Mar -1.9 04:22:35 23° SE 04:22:35 23° SE 04:24:14 10° ESE visible
03 Mar -1.8 05:55:30 12° WSW 05:57:16 17° SSW 05:59:33 10° SSE visible
04 Mar -2.2 05:09:26 21° SSW 05:09:26 21° SSW 05:12:03 10° SSE visible
05 Mar -1.4 04:23:25 16° SSE 04:23:25 16° SSE 04:24:20 10° SE visible
06 Mar -1.4 05:10:24 12° SSW 05:10:24 12° SSW 05:11:07 10° S visible
